Hourly Weather Avdeevichi

Today, 7 May, Friday

Time Temperature Precipitation Wind Pressure Humidity
00:00 +1°C° 0 mm 4 mps 740 mmHg 90%
01:00 +1°C° 0 mm 4 mps 741 mmHg 91%
02:00 0°C° 0 mm 4 mps 741 mmHg 91%
03:00 +1°C° 0 mm 4 mps 741 mmHg 90%
04:00 +1°C° 0 mm 4 mps 741 mmHg 89%
05:00 +1°C° 0 mm 4 mps 741 mmHg 87%
06:00 +3°C° 0 mm 4 mps 741 mmHg 84%
07:00 +5°C° 0 mm 4 mps 741 mmHg 80%
08:00 +6°C° 0 mm 5 mps 741 mmHg 76%
09:00 +7°C° 0.2 mm 5 mps 741 mmHg 71%
10:00 +9°C° 0.2 mm 5 mps 741 mmHg 66%
11:00 +10°C° 0.2 mm 5 mps 741 mmHg 61%
12:00 +10°C° 0.2 mm 5 mps 741 mmHg 64%
13:00 +10°C° 0.2 mm 4 mps 741 mmHg 68%
14:00 +10°C° 0.2 mm 4 mps 741 mmHg 72%
15:00 +10°C° 0.2 mm 4 mps 740 mmHg 76%
16:00 +9°C° 0.2 mm 3 mps 740 mmHg 80%
17:00 +9°C° 0.2 mm 3 mps 740 mmHg 84%
18:00 +8°C° 0.8 mm 3 mps 739 mmHg 87%
19:00 +7°C° 0.8 mm 4 mps 739 mmHg 90%
20:00 +6°C° 0.8 mm 4 mps 739 mmHg 94%
21:00 +7°C° 0.9 mm 3 mps 738 mmHg 95%
22:00 +7°C° 0.9 mm 2 mps 738 mmHg 96%
23:00 +7°C° 0.9 mm 1 mps 737 mmHg 97%

Tomorrow, 8 May, Saturday

Time Temperature Precipitation Wind Pressure Humidity
00:00 +7°C° 0.2 mm 1 mps 737 mmHg 97%
01:00 +7°C° 0.2 mm 2 mps 737 mmHg 96%
02:00 +7°C° 0.2 mm 2 mps 737 mmHg 96%
03:00 +7°C° 0.1 mm 2 mps 736 mmHg 96%
04:00 +6°C° 0.1 mm 2 mps 736 mmHg 97%
05:00 +6°C° 0.1 mm 2 mps 736 mmHg 97%
06:00 +5°C° 0.1 mm 3 mps 737 mmHg 95%
07:00 +5°C° 0.1 mm 4 mps 737 mmHg 93%
08:00 +5°C° 0.1 mm 5 mps 737 mmHg 91%
09:00 +3°C° 0.3 mm 5 mps 738 mmHg 93%
10:00 +3°C° 0.3 mm 5 mps 738 mmHg 95%
11:00 +2°C° 0.3 mm 5 mps 739 mmHg 96%
12:00 +3°C° 0.1 mm 6 mps 739 mmHg 91%
13:00 +4°C° 0.1 mm 6 mps 740 mmHg 85%
14:00 +4°C° 0.1 mm 6 mps 740 mmHg 79%
15:00 +5°C° 0.1 mm 6 mps 741 mmHg 75%
16:00 +5°C° 0.1 mm 6 mps 741 mmHg 72%
17:00 +5°C° 0.1 mm 6 mps 742 mmHg 68%
18:00 +5°C° 0 mm 5 mps 742 mmHg 72%
19:00 +4°C° 0 mm 4 mps 743 mmHg 76%
20:00 +3°C° 0 mm 3 mps 743 mmHg 79%
21:00 +2°C° 0 mm 3 mps 744 mmHg 82%
22:00 +2°C° 0 mm 3 mps 744 mmHg 85%
23:00 0°C° 0 mm 4 mps 745 mmHg 88%

Day after tomorrow, 9 May, Sunday

Time Temperature Precipitation Wind Pressure Humidity
00:00 +1°C° 0 mm 3 mps 746 mmHg 89%
01:00 0°C° 0 mm 3 mps 746 mmHg 89%
02:00 0°C° 0 mm 3 mps 747 mmHg 90%
03:00 0°C° 0 mm 3 mps 748 mmHg 90%
04:00 -1°C° 0 mm 3 mps 748 mmHg 89%
05:00 -1°C° 0 mm 2 mps 749 mmHg 89%
06:00 +1°C° 0 mm 3 mps 750 mmHg 79%
07:00 +3°C° 0 mm 3 mps 750 mmHg 69%
08:00 +5°C° 0 mm 4 mps 751 mmHg 59%
09:00 +6°C° 0 mm 4 mps 751 mmHg 54%
10:00 +8°C° 0 mm 4 mps 751 mmHg 49%
11:00 +10°C° 0 mm 4 mps 752 mmHg 44%
12:00 +11°C° 0 mm 4 mps 752 mmHg 44%
13:00 +11°C° 0 mm 4 mps 752 mmHg 44%
14:00 +12°C° 0 mm 4 mps 752 mmHg 44%
15:00 +12°C° 0 mm 3 mps 752 mmHg 47%
16:00 +12°C° 0 mm 3 mps 752 mmHg 50%
17:00 +12°C° 0 mm 3 mps 752 mmHg 52%
18:00 +10°C° 0 mm 3 mps 752 mmHg 60%
19:00 +9°C° 0 mm 2 mps 753 mmHg 67%
20:00 +7°C° 0 mm 2 mps 753 mmHg 75%
21:00 +6°C° 0 mm 2 mps 753 mmHg 77%
22:00 +5°C° 0 mm 2 mps 754 mmHg 79%
23:00 +4°C° 0 mm 3 mps 754 mmHg 82%

10 May, Monday

Time Temperature Precipitation Wind Pressure Humidity
00:00 +4°C° 0 mm 3 mps 754 mmHg 82%
01:00 +3°C° 0 mm 3 mps 754 mmHg 82%
02:00 +3°C° 0 mm 3 mps 755 mmHg 82%
03:00 +4°C° 0 mm 3 mps 755 mmHg 81%
04:00 +4°C° 0 mm 3 mps 755 mmHg 80%
05:00 +4°C° 0 mm 3 mps 755 mmHg 78%
06:00 +7°C° 0 mm 3 mps 755 mmHg 74%
07:00 +7°C° 0 mm 4 mps 756 mmHg 70%
08:00 +10°C° 0 mm 4 mps 756 mmHg 66%
09:00 +12°C° 0 mm 4 mps 756 mmHg 62%
10:00 +14°C° 0 mm 4 mps 756 mmHg 58%
11:00 +15°C° 0 mm 4 mps 756 mmHg 53%
12:00 +16°C° 0 mm 5 mps 756 mmHg 53%
13:00 +16°C° 0 mm 5 mps 756 mmHg 52%
14:00 +17°C° 0 mm 5 mps 756 mmHg 52%
15:00 +17°C° 0 mm 5 mps 756 mmHg 55%
16:00 +18°C° 0 mm 4 mps 756 mmHg 58%
17:00 +17°C° 0 mm 4 mps 755 mmHg 62%
18:00 +14°C° 0 mm 4 mps 755 mmHg 68%
19:00 +13°C° 0 mm 4 mps 755 mmHg 74%
20:00 +11°C° 0 mm 3 mps 756 mmHg 81%
21:00 +10°C° 0 mm 3 mps 756 mmHg 81%
22:00 +9°C° 0 mm 3 mps 756 mmHg 82%
23:00 +8°C° 0 mm 3 mps 756 mmHg 83%

11 May, Tuesday

Time Temperature Precipitation Wind Pressure Humidity
00:00 +8°C° 0 mm 3 mps 756 mmHg 84%
01:00 +8°C° 0 mm 3 mps 756 mmHg 85%
02:00 +7°C° 0 mm 3 mps 756 mmHg 86%
03:00 +7°C° 0 mm 3 mps 756 mmHg 86%
04:00 +7°C° 0 mm 3 mps 756 mmHg 85%
05:00 +7°C° 0 mm 3 mps 757 mmHg 85%
06:00 +8°C° 0 mm 4 mps 757 mmHg 79%
07:00 +11°C° 0 mm 4 mps 757 mmHg 72%
08:00 +13°C° 0 mm 5 mps 757 mmHg 66%
09:00 +14°C° 0 mm 5 mps 756 mmHg 61%
10:00 +16°C° 0 mm 5 mps 756 mmHg 57%
11:00 +17°C° 0 mm 5 mps 756 mmHg 52%
12:00 +17°C° 0 mm 5 mps 756 mmHg 51%
13:00 +19°C° 0 mm 5 mps 756 mmHg 50%
14:00 +19°C° 0 mm 5 mps 756 mmHg 49%
15:00 +19°C° 0 mm 4 mps 756 mmHg 53%
16:00 +19°C° 0 mm 4 mps 755 mmHg 56%
17:00 +19°C° 0 mm 4 mps 755 mmHg 60%
18:00 +17°C° 0 mm 3 mps 755 mmHg 68%
19:00 +14°C° 0 mm 3 mps 755 mmHg 75%
20:00 +12°C° 0 mm 3 mps 754 mmHg 83%
21:00 +11°C° 0 mm 3 mps 754 mmHg 84%
22:00 +10°C° 0 mm 3 mps 754 mmHg 85%
23:00 +9°C° 0 mm 2 mps 754 mmHg 86%

12 May, Wednesday

Time Temperature Precipitation Wind Pressure Humidity
00:00 +9°C° 0 mm 2 mps 754 mmHg 87%
01:00 +9°C° 0 mm 2 mps 754 mmHg 88%
02:00 +8°C° 0 mm 2 mps 754 mmHg 89%
03:00 +8°C° 0 mm 2 mps 754 mmHg 89%
04:00 +8°C° 0 mm 2 mps 754 mmHg 88%
05:00 +8°C° 0 mm 2 mps 754 mmHg 88%
06:00 +10°C° 0 mm 3 mps 754 mmHg 81%
07:00 +12°C° 0 mm 3 mps 754 mmHg 73%
08:00 +14°C° 0 mm 4 mps 754 mmHg 66%
09:00 +17°C° 0 mm 4 mps 753 mmHg 62%
10:00 +18°C° 0 mm 4 mps 753 mmHg 58%
11:00 +20°C° 0 mm 5 mps 753 mmHg 54%
12:00 +20°C° 0 mm 5 mps 753 mmHg 55%
13:00 +21°C° 0 mm 5 mps 752 mmHg 56%
14:00 +22°C° 0 mm 5 mps 752 mmHg 58%
15:00 +21°C° 0.1 mm 5 mps 752 mmHg 62%
16:00 +21°C° 0.1 mm 5 mps 751 mmHg 67%
17:00 +20°C° 0.1 mm 4 mps 751 mmHg 72%
18:00 +19°C° 0 mm 4 mps 751 mmHg 78%
19:00 +17°C° 0 mm 3 mps 751 mmHg 85%
20:00 +15°C° 0 mm 2 mps 751 mmHg 92%
21:00 +15°C° 0 mm 2 mps 750 mmHg 94%
22:00 +14°C° 0 mm 2 mps 750 mmHg 95%
23:00 +13°C° 0 mm 3 mps 750 mmHg 96%
Show more